When you browse on this site, cookies collect data to enhance your experience and personalize the content and advertising you see.
Visit our Privacy Policy to learn more. By continuing to use the site, you agree to this use of cookies and data.
  • In Deutschland
  • Länderverzeichnis
  • Für 7 Tage
  • Wassertemperatur
  • Satellitenkarten
  • Wetterkarte
  • Widgets
  • user-avatar
    Anmelden

    Stündliche Wetter Kowalicha

    Heute, 23 Juli, Dienstag

    Zeit Temperatur Niederschläge Wind Luftdruck Luftfeuchtigkeit
    00:00 +18°C° 0 mm 1 m/S 757 mmHg 76%
    01:00 +16°C° 0 mm 1 m/S 757 mmHg 77%
    02:00 +16°C° 0 mm 1 m/S 757 mmHg 76%
    03:00 +16°C° 0 mm 1 m/S 757 mmHg 75%
    04:00 +16°C° 0 mm 1 m/S 757 mmHg 74%
    05:00 +16°C° 0 mm 1 m/S 757 mmHg 73%
    06:00 +18°C° 0 mm 1 m/S 757 mmHg 71%
    07:00 +18°C° 0 mm 2 m/S 757 mmHg 70%
    08:00 +18°C° 0 mm 2 m/S 757 mmHg 72%
    09:00 +18°C° 0 mm 2 m/S 757 mmHg 74%
    10:00 +17°C° 0 mm 2 m/S 757 mmHg 76%
    11:00 +18°C° 0 mm 3 m/S 757 mmHg 73%
    12:00 +19°C° 0 mm 3 m/S 756 mmHg 70%
    13:00 +20°C° 0 mm 4 m/S 756 mmHg 67%
    14:00 +21°C° 0 mm 4 m/S 756 mmHg 67%
    15:00 +21°C° 0 mm 3 m/S 756 mmHg 67%
    16:00 +21°C° 0 mm 3 m/S 756 mmHg 67%
    17:00 +20°C° 0 mm 3 m/S 756 mmHg 71%
    18:00 +20°C° 0 mm 2 m/S 756 mmHg 76%
    19:00 +19°C° 0 mm 2 m/S 756 mmHg 80%
    20:00 +18°C° 0 mm 2 m/S 756 mmHg 84%
    21:00 +17°C° 0 mm 2 m/S 756 mmHg 88%
    22:00 +16°C° 0 mm 2 m/S 756 mmHg 92%
    23:00 +16°C° 0 mm 2 m/S 756 mmHg 92%

    Morgen, 24 Juli, Mittwoch

    Zeit Temperatur Niederschläge Wind Luftdruck Luftfeuchtigkeit
    00:00 +15°C° 0 mm 1 m/S 756 mmHg 93%
    01:00 +15°C° 0 mm 1 m/S 756 mmHg 93%
    02:00 +15°C° 0 mm 1 m/S 756 mmHg 93%
    03:00 +15°C° 0 mm 1 m/S 756 mmHg 92%
    04:00 +15°C° 0 mm 1 m/S 756 mmHg 92%
    05:00 +16°C° 0 mm 1 m/S 756 mmHg 88%
    06:00 +18°C° 0 mm 1 m/S 756 mmHg 83%
    07:00 +20°C° 0 mm 1 m/S 756 mmHg 79%
    08:00 +21°C° 0 mm 1 m/S 756 mmHg 73%
    09:00 +23°C° 0 mm 1 m/S 756 mmHg 67%
    10:00 +24°C° 0 mm 1 m/S 756 mmHg 62%
    11:00 +25°C° 0 mm 1 m/S 756 mmHg 60%
    12:00 +25°C° 0 mm 2 m/S 756 mmHg 57%
    13:00 +26°C° 0 mm 2 m/S 756 mmHg 55%
    14:00 +26°C° 0 mm 2 m/S 756 mmHg 54%
    15:00 +26°C° 0 mm 2 m/S 756 mmHg 52%
    16:00 +27°C° 0 mm 2 m/S 755 mmHg 50%
    17:00 +26°C° 0 mm 2 m/S 755 mmHg 55%
    18:00 +24°C° 0 mm 2 m/S 755 mmHg 60%
    19:00 +23°C° 0 mm 1 m/S 755 mmHg 65%
    20:00 +22°C° 0 mm 1 m/S 756 mmHg 70%
    21:00 +21°C° 0 mm 1 m/S 756 mmHg 75%
    22:00 +20°C° 0 mm 1 m/S 756 mmHg 80%
    23:00 +19°C° 0 mm 1 m/S 756 mmHg 83%

    übermorgen, 25 Juli, Donnerstag

    Zeit Temperatur Niederschläge Wind Luftdruck Luftfeuchtigkeit
    00:00 +19°C° 0 mm 1 m/S 756 mmHg 87%
    01:00 +18°C° 0 mm 1 m/S 757 mmHg 90%
    02:00 +18°C° 0 mm 1 m/S 757 mmHg 91%
    03:00 +18°C° 0 mm 1 m/S 757 mmHg 91%
    04:00 +18°C° 0 mm 1 m/S 757 mmHg 92%
    05:00 +19°C° 0 mm 1 m/S 757 mmHg 86%
    06:00 +21°C° 0 mm 1 m/S 757 mmHg 81%
    07:00 +22°C° 0 mm 1 m/S 756 mmHg 75%
    08:00 +24°C° 0 mm 1 m/S 757 mmHg 69%
    09:00 +25°C° 0 mm 2 m/S 757 mmHg 63%
    10:00 +26°C° 0 mm 2 m/S 757 mmHg 57%
    11:00 +27°C° 0 mm 2 m/S 756 mmHg 53%
    12:00 +27°C° 0 mm 2 m/S 756 mmHg 49%
    13:00 +28°C° 0 mm 3 m/S 756 mmHg 45%
    14:00 +28°C° 0 mm 3 m/S 755 mmHg 45%
    15:00 +28°C° 0 mm 3 m/S 755 mmHg 44%
    16:00 +28°C° 0 mm 3 m/S 755 mmHg 44%
    17:00 +27°C° 0 mm 3 m/S 755 mmHg 53%
    18:00 +25°C° 0 mm 3 m/S 755 mmHg 61%
    19:00 +22°C° 0 mm 4 m/S 755 mmHg 69%
    20:00 +21°C° 0 mm 3 m/S 755 mmHg 72%
    21:00 +19°C° 0 mm 3 m/S 755 mmHg 75%
    22:00 +18°C° 0 mm 3 m/S 755 mmHg 77%
    23:00 +17°C° 0 mm 3 m/S 755 mmHg 82%

    26 Juli, Freitag

    Zeit Temperatur Niederschläge Wind Luftdruck Luftfeuchtigkeit
    00:00 +16°C° 0 mm 3 m/S 755 mmHg 87%
    01:00 +16°C° 0 mm 2 m/S 754 mmHg 92%
    02:00 +16°C° 0 mm 2 m/S 754 mmHg 93%
    03:00 +15°C° 0 mm 2 m/S 754 mmHg 94%
    04:00 +15°C° 0 mm 2 m/S 754 mmHg 95%
    05:00 +17°C° 0 mm 3 m/S 754 mmHg 89%
    06:00 +18°C° 0 mm 3 m/S 754 mmHg 84%
    07:00 +19°C° 0 mm 3 m/S 754 mmHg 78%
    08:00 +21°C° 0 mm 4 m/S 754 mmHg 71%
    09:00 +22°C° 0 mm 4 m/S 754 mmHg 64%
    10:00 +25°C° 0 mm 4 m/S 754 mmHg 57%
    11:00 +25°C° 0.1 mm 4 m/S 754 mmHg 56%
    12:00 +26°C° 0.1 mm 4 m/S 753 mmHg 54%
    13:00 +27°C° 0.1 mm 4 m/S 753 mmHg 53%
    14:00 +26°C° 0.2 mm 5 m/S 753 mmHg 56%
    15:00 +26°C° 0.2 mm 5 m/S 753 mmHg 59%
    16:00 +25°C° 0.2 mm 5 m/S 753 mmHg 62%
    17:00 +23°C° 0.1 mm 4 m/S 753 mmHg 68%
    18:00 +22°C° 0.1 mm 4 m/S 753 mmHg 74%
    19:00 +21°C° 0.1 mm 3 m/S 753 mmHg 81%
    20:00 +21°C° 0 mm 3 m/S 753 mmHg 82%
    21:00 +20°C° 0 mm 3 m/S 753 mmHg 84%
    22:00 +20°C° 0 mm 3 m/S 753 mmHg 86%
    23:00 +19°C° 0.1 mm 3 m/S 753 mmHg 89%

    27 Juli, Samstag

    Zeit Temperatur Niederschläge Wind Luftdruck Luftfeuchtigkeit
    00:00 +18°C° 0.1 mm 3 m/S 753 mmHg 91%
    01:00 +18°C° 0.1 mm 3 m/S 752 mmHg 94%
    02:00 +17°C° 0 mm 3 m/S 752 mmHg 95%
    03:00 +17°C° 0 mm 3 m/S 752 mmHg 95%
    04:00 +17°C° 0 mm 3 m/S 752 mmHg 96%
    05:00 +18°C° 0 mm 3 m/S 752 mmHg 92%
    06:00 +19°C° 0 mm 4 m/S 752 mmHg 89%
    07:00 +20°C° 0 mm 4 m/S 753 mmHg 85%
    08:00 +21°C° 0 mm 4 m/S 753 mmHg 78%
    09:00 +23°C° 0 mm 5 m/S 753 mmHg 71%
    10:00 +25°C° 0 mm 5 m/S 753 mmHg 64%
    11:00 +26°C° 0.2 mm 5 m/S 752 mmHg 61%
    12:00 +27°C° 0.2 mm 6 m/S 752 mmHg 58%
    13:00 +28°C° 0.2 mm 6 m/S 752 mmHg 56%
    14:00 +27°C° 0.4 mm 6 m/S 752 mmHg 57%
    15:00 +27°C° 0.4 mm 6 m/S 752 mmHg 58%
    16:00 +27°C° 0.4 mm 6 m/S 752 mmHg 59%
    17:00 +26°C° 0.1 mm 5 m/S 752 mmHg 64%
    18:00 +25°C° 0.1 mm 4 m/S 752 mmHg 68%
    19:00 +24°C° 0.1 mm 3 m/S 752 mmHg 73%
    20:00 +22°C° 0.1 mm 3 m/S 752 mmHg 79%
    21:00 +21°C° 0.1 mm 3 m/S 752 mmHg 84%
    22:00 +20°C° 0.1 mm 3 m/S 752 mmHg 90%
    23:00 +19°C° 0 mm 3 m/S 752 mmHg 90%

    28 Juli, Sonntag

    Zeit Temperatur Niederschläge Wind Luftdruck Luftfeuchtigkeit
    00:00 +19°C° 0 mm 3 m/S 752 mmHg 91%
    01:00 +19°C° 0 mm 3 m/S 752 mmHg 92%
    02:00 +19°C° 0 mm 3 m/S 752 mmHg 93%
    03:00 +18°C° 0 mm 3 m/S 752 mmHg 93%
    04:00 +18°C° 0 mm 3 m/S 752 mmHg 94%
    05:00 +19°C° 0 mm 3 m/S 752 mmHg 89%
    06:00 +21°C° 0 mm 4 m/S 752 mmHg 85%
    07:00 +22°C° 0 mm 4 m/S 752 mmHg 80%
    08:00 +23°C° 0.2 mm 5 m/S 752 mmHg 74%
    09:00 +26°C° 0.2 mm 5 m/S 752 mmHg 68%
    10:00 +27°C° 0.2 mm 6 m/S 751 mmHg 62%
    11:00 +28°C° 0.8 mm 6 m/S 751 mmHg 61%
    12:00 +28°C° 0.8 mm 6 m/S 751 mmHg 60%
    13:00 +29°C° 0.8 mm 6 m/S 751 mmHg 59%
    14:00 +29°C° 0.6 mm 5 m/S 750 mmHg 59%
    15:00 +29°C° 0.6 mm 5 m/S 750 mmHg 59%
    16:00 +29°C° 0.6 mm 4 m/S 750 mmHg 60%
    17:00 +27°C° 0.3 mm 4 m/S 750 mmHg 65%
    18:00 +26°C° 0.3 mm 4 m/S 750 mmHg 71%
    19:00 +25°C° 0.3 mm 3 m/S 750 mmHg 77%
    20:00 +24°C° 0.1 mm 3 m/S 750 mmHg 80%
    21:00 +22°C° 0.1 mm 3 m/S 750 mmHg 82%
    22:00 +22°C° 0.1 mm 3 m/S 750 mmHg 85%
    23:00 +21°C° 0.2 mm 3 m/S 750 mmHg 87%
    Mehr zeigen